TimeCST,TemperatureF,Dew PointF,Humidity,Sea Level PressureIn,VisibilityMPH,Wind Direction,Wind SpeedMPH,Gust SpeedMPH,PrecipitationIn,Events,Conditions,WindDirDegrees,DateUTC
12:53 AM,30.9,26.1,82,30.11,6.0,SW,9.2,-,N/A,,Haze,220,2013-01-08 06:53:00
1:53 AM,30.0,25.0,82,30.12,6.0,SW,8.1,-,N/A,,Haze,230,2013-01-08 07:53:00
2:53 AM,30.0,25.0,82,30.11,6.0,SW,9.2,-,N/A,,Haze,220,2013-01-08 08:53:00
3:53 AM,30.0,25.0,82,30.11,6.0,SW,8.1,-,N/A,,Haze,230,2013-01-08 09:53:00
4:53 AM,28.9,24.1,82,30.12,6.0,SW,6.9,-,N/A,,Haze,230,2013-01-08 10:53:00
5:53 AM,28.0,24.1,85,30.12,6.0,WSW,6.9,-,N/A,,Clear,240,2013-01-08 11:53:00
6:53 AM,28.0,24.1,85,30.13,6.0,West,5.8,-,N/A,,Clear,260,2013-01-08 12:53:00
7:53 AM,27.0,23.0,85,30.16,4.0,WSW,3.5,-,N/A,,Clear,240,2013-01-08 13:53:00
8:53 AM,30.0,25.0,82,30.17,4.0,SW,6.9,-,N/A,,Haze,220,2013-01-08 14:53:00
9:53 AM,33.1,26.1,75,30.16,6.0,SSW,6.9,-,N/A,,Haze,210,2013-01-08 15:53:00
10:53 AM,36.0,27.0,70,30.15,7.0,South,6.9,-,N/A,,Clear,190,2013-01-08 16:53:00
11:53 AM,39.0,28.0,65,30.12,7.0,SSW,6.9,-,N/A,,Clear,210,2013-01-08 17:53:00
12:53 PM,37.9,28.0,68,30.11,6.0,SSE,8.1,-,N/A,,Haze,160,2013-01-08 18:53:00
1:53 PM,37.0,28.0,70,30.10,7.0,South,10.4,-,N/A,,Clear,170,2013-01-08 19:53:00
2:53 PM,37.9,28.9,70,30.09,7.0,South,9.2,-,N/A,,Clear,170,2013-01-08 20:53:00
3:53 PM,37.0,30.9,79,30.10,5.0,South,12.7,19.6,N/A,,Haze,170,2013-01-08 21:53:00
4:53 PM,37.0,30.9,79,30.08,6.0,South,11.5,-,N/A,,Haze,170,2013-01-08 22:53:00
5:53 PM,37.0,30.9,79,30.08,7.0,South,11.5,-,N/A,,Clear,170,2013-01-08 23:53:00
6:53 PM,37.0,30.9,79,30.06,7.0,South,13.8,20.7,N/A,,Clear,180,2013-01-09 00:53:00
7:53 PM,37.9,28.9,70,30.05,9.0,South,12.7,-,N/A,,Scattered Clouds,180,2013-01-09 01:53:00
8:53 PM,37.9,28.9,70,30.04,10.0,SSW,13.8,20.7,N/A,,Overcast,210,2013-01-09 02:53:00
9:53 PM,37.9,28.0,68,30.04,10.0,SSW,17.3,23.0,N/A,,Partly Cloudy,200,2013-01-09 03:53:00
11:53 PM,37.0,28.0,70,29.99,10.0,SSW,13.8,-,N/A,,Partly Cloudy,210,2013-01-09 05:53:00